This is the latest recevied weather packets stored in our database for station/object PE1BMM-13. If no packets are shown the sender has not sent any weather packets the latest 10 day(s).
| Time | Temp. | Humidity | Pressure | Rain* | Wind** | Luminosity | Snow |
|---|---|---|---|---|---|---|---|
| 1777814568 | 15.56° C | 94% | 1010.6 hPa | 0 mm | - | - | - |
| 1777814290 | 15.56° C | 95% | 1010.6 hPa | 0 mm | - | - | - |
| 1777813968 | 15.56° C | 95% | 1010.6 hPa | 0.25 mm | - | - | - |
| 1777813667 | 15° C | 96% | 1010.7 hPa | 0.25 mm | - | - | - |
| 1777813377 | 15° C | 96% | 1010.7 hPa | 0.25 mm | - | - | - |
| 1777813094 | 15° C | 96% | 1010.8 hPa | 0.25 mm | - | - | - |
| 1777812767 | 15° C | 96% | 1010.7 hPa | 0.51 mm | - | - | - |
| 1777812469 | 15° C | 96% | 1010.7 hPa | 0.51 mm | - | - | - |
| 1777812169 | 15° C | 96% | 1010.8 hPa | 0.51 mm | - | - | - |
| 1777811866 | 15° C | 96% | 1010.7 hPa | 0.51 mm | - | - | - |
| 1777811565 | 14.44° C | 96% | 1010.8 hPa | 0.51 mm | - | - | - |
| 1777811264 | 15° C | 96% | 1010.7 hPa | 0.51 mm | - | - | - |
| 1777810965 | 15° C | 97% | 1010.7 hPa | 0.76 mm | - | - | - |
| 1777810663 | 14.44° C | 96% | 1010.7 hPa | 0.76 mm | - | - | - |
| 1777810364 | 14.44° C | 96% | 1010.6 hPa | 0.51 mm | - | - | - |
| 1777810087 | 14.44° C | 96% | 1010.7 hPa | 0.76 mm | - | - | - |
| 1777809760 | 15° C | 96% | 1010.7 hPa | 0.76 mm | - | - | - |
| 1777809460 | 15° C | 96% | 1010.8 hPa | 0.76 mm | - | - | - |
| 1777809160 | 14.44° C | 96% | 1010.6 hPa | 0.76 mm | - | - | - |
| 1777808859 | 15° C | 96% | 1010.6 hPa | 1.52 mm | - | - | - |
| 1777808561 | 15° C | 96% | 1010.6 hPa | 1.52 mm | - | - | - |
| 1777808292 | 15° C | 96% | 1010.6 hPa | 1.78 mm | - | - | - |
| 1777807959 | 15° C | 96% | 1010.7 hPa | 2.29 mm | - | - | - |
| 1777807660 | 15° C | 96% | 1010.7 hPa | 2.54 mm | - | - | - |
| 1777807359 | 15° C | 96% | 1010.8 hPa | 2.29 mm | - | - | - |
* Rain latest hour (hover to see other rain measurements)
** Current wind speed in m/s (hover to see current wind gust speed)